Regional Weather Roundup
Issued by NWS

Home | Current Version | Previous Version | Graphics & Text | Print | Product List | Glossary On
Versions: 1 2 3 4 5 6 7 8 9 10 11 12 13 14 15 16 17 18 19 20 21 22 23 24 25 26 27 28 29 30 31 32 33 34 35 36 37 38 39 40 41 42 43 44 45 46 47 48 49 50
937
ASUS43 KBIS 201510
RWRND

NORTH DAKOTA REGIONAL WEATHER ROUNDUP
NATIONAL WEATHER SERVICE BISMARCK ND
1000 AM CDT WED SEP 20 2017

NOTE: "FAIR" INDICATES FEW OR NO CLOUDS BELOW 12,000 FEET WITH NO
SIGNIFICANT WEATHER AND/OR OBSTRUCTIONS TO VISIBILITY.


NDZ001>003-009>011-017-201600-
NORTHWEST NORTH DAKOTA

CITY           SKY/WX    TMP DP  RH WIND       PRES   REMARKS
WILLISTON      SUNNY     50  41  71 SW15      29.61R
MINOT          SUNNY     55  44  66 S10       29.61R
MINOT AFB      MOSUNNY   55  44  66 SW13      29.59R
$$

NDZ018>021-031>035-040>046-201600-
SOUTHWEST NORTH DAKOTA

CITY           SKY/WX    TMP DP  RH WIND       PRES   REMARKS
BISMARCK       SUNNY     54  44  69 SW10      29.73R
DICKINSON      SUNNY     52  41  66 SW18      29.68R
GARRISON         N/A     53  44  71 W13       29.66R
HETTINGER ARPT SUNNY     51  42  71 SW12      29.76S
$$

NDZ004>008-012>016-024-026-027-054-201600-
NORTHEAST NORTH DAKOTA

CITY           SKY/WX    TMP DP  RH WIND       PRES   REMARKS
GRAND FORKS    MOSUNNY   58  50  75 SW13      29.66R
GRND FRKS AFB  SUNNY     59  47  63 W10G22    29.66R
DEVILS LAKE    MOSUNNY   54  46  74 SW15      29.66R
$$

NDZ022-023-025-028>030-036>039-047>053-201600-
SOUTHEAST NORTH DAKOTA

CITY           SKY/WX    TMP DP  RH WIND       PRES   REMARKS
FARGO          SUNNY     58  48  69 W12       29.72R
JAMESTOWN      SUNNY     55  44  66 W9        29.72R
$$





USA.gov is the U.S. government's official web portal to all federal, state and local government web resources and services.